George, South Africa

12:37 AM SAST on March 30, 2017 (GMT +0200)
George

Weather History for FAGG - February, 2012

Change the Weather History Date:

Friday, February 3, 2012

  Actual Average Record
Temperature  
Mean Temperature 65 °F -  
Max Temperature 68 °F 74 °F 80 °F (2003)
Min Temperature 62 °F 59 °F 56 °F (2014)
Growing Degree Days 15 (Base 50)    
Moisture  
Dew Point 63 °F    
Average Humidity 98    
Maximum Humidity 100    
Minimum Humidity 88    
Precipitation  
Precipitation 0.16 in - - ()
Sea Level Pressure  
Sea Level Pressure 30.07 in    
Wind  
Wind Speed 8 mph ()    
Max Wind Speed 16 mph    
Max Gust Speed -    
Visibility 4.4 miles    
Events Fog , Rain    
Averages and records for this station are not official NWS values.
T = Trace of Precipitation, MM = Missing Value Source: Averaged Metar Reports

Daily Weather History Graph

Daily Weather History Graph

Search for Another Location

Airport or City:

Trip Planner

Search our weather history database for the weather conditions in past years. The results will help you decide how hot, cold, wet, or windy it might be!

Date:

Astronomy

Feb. 03, 2012 Rise Set
Actual Time 5:53 AM SAST 7:34 PM SAST
Civil Twilight 5:26 AM SAST 8:01 PM SAST
Nautical Twilight 4:53 AM SAST 8:34 PM SAST
Astronomical Twilight 4:19 AM SAST 9:08 PM SAST
Moon 4:07 PM SAST (2/3) 1:26 AM SAST (2/3)
Length of Visible Light 14h 35m
Length of Day
13h 41m
Waxing Gibbous, 79% of the Moon is Illuminated
Feb 3
Waxing Gibbous
Feb 7
Full
Feb 14
Last Quarter
Feb 22
New
Mar 1
First Quarter

Hourly Weather History & Observations

Time (SAST) Temp. Dew Point Humidity Pressure Visibility Wind Dir Wind Speed Gust Speed Precip Events Conditions
12:00 AM 64.4 °F 62.6 °F 94% 30.06 in 6.2 mi East 5.8 mph - N/A   Mostly Cloudy
1:00 AM 62.6 °F 62.6 °F 100% 30.06 in 6.2 mi East 3.5 mph - N/A Rain Light Rain
2:00 AM 63 °F 62 °F 96% 30.05 in 6 mi East 2.3 mph - -  
2:00 AM 62.6 °F 62.6 °F 100% 30.04 in 6.2 mi East 2.3 mph - N/A   Overcast
3:00 AM 64.4 °F 62.6 °F 94% 30.04 in 6.2 mi East 3.5 mph - N/A   Overcast
4:00 AM 64.4 °F 62.6 °F 94% 30.04 in - East 3.5 mph - N/A   Heavy Drizzle
4:16 AM 62.6 °F 62.6 °F 100% 30.04 in - East 8.1 mph - N/A Rain Light Rain
5:00 AM 63 °F 63 °F 99% 30.04 in 3 mi East 6.9 mph - - Rain Light Rain
5:00 AM 62.6 °F 62.6 °F 100% 30.04 in - East 6.9 mph - N/A Rain Light Rain
6:00 AM 62.6 °F 62.6 °F 100% 30.04 in - East 6.9 mph - N/A Rain Light Rain
7:00 AM 62.6 °F 62.6 °F 100% 30.04 in 2.8 mi ESE 6.9 mph - N/A Rain Light Rain
8:00 AM 63 °F 63 °F 100% 30.08 in 2 mi SE 6.9 mph - - Rain Light Rain
8:00 AM 62.6 °F 62.6 °F 100% 30.06 in 1.9 mi ESE 6.9 mph - N/A Rain Light Rain
8:09 AM 62.6 °F 62.6 °F 100% 30.06 in 1.1 mi East 4.6 mph - N/A Rain Light Rain
9:00 AM 64.4 °F 64.4 °F 100% 30.06 in 1.8 mi East 5.8 mph - N/A Rain Light Rain
9:01 AM 64.4 °F 64.4 °F 100% 30.06 in - East 5.8 mph - N/A Rain Light Rain
9:27 AM 64.4 °F 64.4 °F 100% 30.06 in 3.1 mi ESE 6.9 mph - N/A   Light Drizzle
10:00 AM 64.4 °F 64.4 °F 100% 30.06 in 3.1 mi East 8.1 mph - N/A   Light Drizzle
10:03 AM 64.4 °F 64.4 °F 100% 30.06 in 2.5 mi ESE 8.1 mph - N/A   Light Drizzle
11:00 AM 64 °F 64 °F 100% 30.08 in 3 mi ESE 11.5 mph - - Rain Light Drizzle
11:00 AM 64.4 °F 64.4 °F 100% 30.06 in 3.1 mi ESE 11.5 mph - N/A   Light Drizzle
12:00 PM 66.2 °F 64.4 °F 94% 30.06 in 6.2 mi ESE 12.7 mph - N/A   Mostly Cloudy
12:26 PM 66.2 °F 64.4 °F 94% 30.06 in 6.2 mi ESE 13.8 mph - N/A   Mostly Cloudy
1:00 PM 68.0 °F 64.4 °F 88% 30.06 in 6.2 mi East 13.8 mph - N/A   Mostly Cloudy
2:00 PM 66 °F 64 °F 91% 30.08 in 12 mi ESE 15.0 mph - -   Partly Cloudy
2:00 PM 66.2 °F 64.4 °F 94% 30.06 in 6.2 mi ESE 15.0 mph - N/A   Mostly Cloudy
2:21 PM 64.4 °F 64.4 °F 100% 30.06 in 6.2 mi ESE 16.1 mph - N/A   Mostly Cloudy
2:29 PM 64.4 °F 64.4 °F 100% 30.06 in 3.7 mi ESE 15.0 mph - N/A   Overcast
2:44 PM 64.4 °F 62.6 °F 94% 30.06 in 6.2 mi ESE 13.8 mph - N/A   Overcast
3:00 PM 64.4 °F 62.6 °F 94% 30.06 in 6.2 mi ESE 13.8 mph - N/A   Overcast
3:30 PM 64.4 °F 62.6 °F 94% 30.09 in 3.1 mi ESE 13.8 mph - N/A   Light Drizzle
4:00 PM 64.4 °F 64.4 °F 100% 30.09 in 3.1 mi ESE 15.0 mph - N/A   Light Drizzle
4:36 PM 62.6 °F 62.6 °F 100% 30.09 in 3.7 mi ESE 16.1 mph - N/A   Light Drizzle
4:57 PM 64.4 °F 64.4 °F 100% 30.09 in 3.7 mi ESE 12.7 mph - N/A Rain Rain
5:00 PM 64 °F 64 °F 99% 30.09 in 4 mi ESE 12.7 mph - - Rain Light Drizzle
5:00 PM 64.4 °F 64.4 °F 100% 30.09 in 3.7 mi ESE 12.7 mph - N/A Rain Rain
5:19 PM 64.4 °F 64.4 °F 100% 30.09 in 1.9 mi ESE 11.5 mph - N/A Rain Light Rain
5:26 PM 64.4 °F 64.4 °F 100% 30.09 in 0.9 mi ESE 11.5 mph - N/A Fog Drizzle
5:44 PM 62.6 °F 62.6 °F 100% 30.09 in 2.2 mi ESE 12.7 mph - N/A Rain Light Rain
6:00 PM 62.6 °F 62.6 °F 100% 30.09 in 2.2 mi East 11.5 mph - N/A   Drizzle
6:37 PM 62.6 °F 62.6 °F 100% 30.09 in 3.1 mi ENE 12.7 mph - N/A Rain Light Rain
7:00 PM 62.6 °F 62.6 °F 100% 30.09 in 6.2 mi East 11.5 mph - N/A Rain Light Rain
7:28 PM 62.6 °F 62.6 °F 100% 30.09 in 6.2 mi East 9.2 mph - N/A Rain Light Rain
8:00 PM 63 °F 63 °F 100% 30.10 in 6 mi East 10.4 mph - - Rain Light Rain
8:00 PM 62.6 °F 62.6 °F 100% 30.09 in 6.2 mi East 10.4 mph - N/A Rain Light Rain
9:00 PM 62.6 °F 62.6 °F 100% 30.09 in 6.2 mi ESE 13.8 mph - N/A   Mostly Cloudy
10:00 PM 62.6 °F 62.6 °F 100% 30.12 in 3.1 mi East 11.5 mph - N/A   Mist